Time,TemperatureF,DewpointF,PressureIn,WindDirection,WindDirectionDegrees,WindSpeedMPH,WindSpeedGustMPH,Humidity,HourlyPrecipIn,Conditions,Clouds,dailyrainin,SoftwareType,DateUTC
2013-01-23 00:00:00,13.3,-0.3,30.20,NNW,333,2.0,2.0,54,0.00,,,0.00,Wunderground v.1.15,2013-01-23 05:00:00,
2013-01-23 00:10:00,13.2,-0.4,30.20,NW,318,2.0,2.0,54,0.00,,,0.00,Wunderground v.1.15,2013-01-23 05:10:00,
2013-01-23 00:20:00,13.2,0.0,30.20,NNW,329,4.0,4.0,55,0.00,,,0.00,Wunderground v.1.15,2013-01-23 05:20:00,
2013-01-23 00:30:00,13.1,-0.5,30.20,NNW,342,4.0,8.0,54,0.00,,,0.00,Wunderground v.1.15,2013-01-23 05:30:00,
2013-01-23 00:40:00,13.1,-0.1,30.20,NW,311,5.0,5.0,55,0.00,,,0.00,Wunderground v.1.15,2013-01-23 05:40:00,
2013-01-23 00:50:00,13.2,0.0,30.20,NW,322,4.0,4.0,55,0.00,,,0.00,Wunderground v.1.15,2013-01-23 05:50:00,
2013-01-23 01:00:00,13.3,-0.3,30.21,NNW,338,4.0,4.0,54,0.00,,,0.00,Wunderground v.1.15,2013-01-23 06:00:00,
2013-01-23 01:10:00,13.3,0.1,30.21,NNW,336,2.0,4.0,55,0.00,,,0.00,Wunderground v.1.15,2013-01-23 06:10:00,
2013-01-23 01:20:00,13.4,0.2,30.20,WNW,292,2.0,2.0,55,0.00,,,0.00,Wunderground v.1.15,2013-01-23 06:20:00,
2013-01-23 01:30:00,13.4,0.2,30.20,NNW,330,4.0,4.0,55,0.00,,,0.00,Wunderground v.1.15,2013-01-23 06:30:00,
2013-01-23 01:40:00,13.3,0.1,30.20,West,260,4.0,4.0,55,0.00,,,0.00,Wunderground v.1.15,2013-01-23 06:40:00,
2013-01-23 01:50:00,13.3,0.5,30.20,NW,321,2.0,2.0,56,0.00,,,0.00,Wunderground v.1.15,2013-01-23 06:50:00,
2013-01-23 02:00:00,13.2,0.4,30.21,NNW,331,5.0,5.0,56,0.00,,,0.00,Wunderground v.1.15,2013-01-23 07:00:00,
2013-01-23 02:10:00,13.2,0.4,30.21,WNW,297,3.0,3.0,56,0.00,,,0.00,Wunderground v.1.15,2013-01-23 07:10:00,
2013-01-23 02:20:00,13.1,0.3,30.22,NW,318,6.0,6.0,56,0.00,,,0.00,Wunderground v.1.15,2013-01-23 07:20:00,
2013-01-23 02:30:00,13.0,0.2,30.22,NW,325,4.0,4.0,56,0.00,,,0.00,Wunderground v.1.15,2013-01-23 07:30:00,
2013-01-23 02:40:00,12.9,0.1,30.22,SW,224,2.0,2.0,56,0.00,,,0.00,Wunderground v.1.15,2013-01-23 07:40:00,
2013-01-23 02:50:00,12.7,-0.1,30.23,West,279,2.0,2.0,56,0.00,,,0.00,Wunderground v.1.15,2013-01-23 07:50:00,
2013-01-23 03:00:00,12.7,0.3,30.22,NNW,341,2.0,2.0,57,0.00,,,0.00,Wunderground v.1.15,2013-01-23 08:00:00,
2013-01-23 03:10:00,12.6,0.2,30.23,SSE,168,1.0,1.0,57,0.00,,,0.00,Wunderground v.1.15,2013-01-23 08:10:00,
2013-01-23 03:20:00,12.6,0.6,30.23,SW,220,2.0,2.0,58,0.00,,,0.00,Wunderground v.1.15,2013-01-23 08:20:00,
2013-01-23 03:30:00,12.5,0.5,30.23,West,265,0.0,0.0,58,0.00,,,0.00,Wunderground v.1.15,2013-01-23 08:30:00,
2013-01-23 03:40:00,12.3,0.3,30.24,NW,322,1.0,1.0,58,0.00,,,0.00,Wunderground v.1.15,2013-01-23 08:40:00,
2013-01-23 03:50:00,12.2,0.6,30.23,NNW,330,1.0,1.0,59,0.00,,,0.00,Wunderground v.1.15,2013-01-23 08:50:00,
2013-01-23 04:00:00,12.1,0.5,30.23,NW,321,0.0,0.0,59,0.00,,,0.00,Wunderground v.1.15,2013-01-23 09:00:00,
2013-01-23 04:10:00,12.0,0.4,30.23,NW,324,1.0,1.0,59,0.00,,,0.00,Wunderground v.1.15,2013-01-23 09:10:00,
2013-01-23 04:20:00,12.0,0.4,30.23,NW,306,1.0,1.0,59,0.00,,,0.00,Wunderground v.1.15,2013-01-23 09:20:00,
2013-01-23 04:30:00,11.9,0.3,30.23,NW,306,0.0,0.0,59,0.00,,,0.00,Wunderground v.1.15,2013-01-23 09:30:00,
2013-01-23 04:40:00,11.8,0.6,30.23,NW,320,0.0,0.0,60,0.00,,,0.00,Wunderground v.1.15,2013-01-23 09:40:00,
2013-01-23 04:50:00,11.7,0.5,30.22,West,281,1.0,1.0,60,0.00,,,0.00,Wunderground v.1.15,2013-01-23 09:50:00,
2013-01-23 05:00:00,11.6,0.4,30.22,SW,223,1.0,1.0,60,0.00,,,0.00,Wunderground v.1.15,2013-01-23 10:00:00,
2013-01-23 05:10:00,11.6,0.4,30.23,NW,305,1.0,5.0,60,0.00,,,0.00,Wunderground v.1.15,2013-01-23 10:10:00,
2013-01-23 05:20:00,11.6,0.4,30.23,WNW,296,1.0,2.0,60,0.00,,,0.00,Wunderground v.1.15,2013-01-23 10:20:00,
2013-01-23 05:30:00,11.6,0.4,30.24,WNW,301,1.0,1.0,60,0.00,,,0.00,Wunderground v.1.15,2013-01-23 10:30:00,
2013-01-23 05:40:00,11.5,0.3,30.24,WNW,295,1.0,1.0,60,0.00,,,0.00,Wunderground v.1.15,2013-01-23 10:40:00,
2013-01-23 05:50:00,11.4,0.5,30.24,WNW,302,0.0,0.0,61,0.00,,,0.00,Wunderground v.1.15,2013-01-23 10:50:00,
2013-01-23 06:00:00,11.3,0.4,30.24,West,265,0.0,0.0,61,0.00,,,0.00,Wunderground v.1.15,2013-01-23 11:00:00,
2013-01-23 06:10:00,11.2,0.4,30.24,West,261,1.0,1.0,61,0.00,,,0.00,Wunderground v.1.15,2013-01-23 11:10:00,
2013-01-23 06:20:00,11.1,0.3,30.24,WNW,293,1.0,1.0,61,0.00,,,0.00,Wunderground v.1.15,2013-01-23 11:20:00,
2013-01-23 06:30:00,11.1,0.3,30.24,WSW,252,0.0,4.0,61,0.00,,,0.00,Wunderground v.1.15,2013-01-23 11:30:00,
2013-01-23 06:40:00,11.1,0.3,30.24,NW,323,1.0,1.0,61,0.00,,,0.00,Wunderground v.1.15,2013-01-23 11:40:00,
2013-01-23 06:50:00,11.1,0.6,30.24,NNW,336,2.0,5.0,62,0.00,,,0.00,Wunderground v.1.15,2013-01-23 11:50:00,
2013-01-23 07:00:00,11.1,0.6,30.25,SW,227,1.0,1.0,62,0.00,,,0.00,Wunderground v.1.15,2013-01-23 12:00:00,
2013-01-23 07:10:00,11.0,0.5,30.26,NNW,336,0.0,6.0,62,0.00,,,0.00,Wunderground v.1.15,2013-01-23 12:10:00,
2013-01-23 07:20:00,10.9,0.4,30.26,WNW,303,1.0,1.0,62,0.00,,,0.00,Wunderground v.1.15,2013-01-23 12:20:00,
2013-01-23 07:30:00,11.0,0.9,30.26,NNW,329,1.0,5.0,63,0.00,,,0.00,Wunderground v.1.15,2013-01-23 12:30:00,
2013-01-23 07:40:00,11.0,0.9,30.26,West,267,1.0,3.0,63,0.00,,,0.00,Wunderground v.1.15,2013-01-23 12:40:00,
2013-01-23 07:50:00,11.0,0.9,30.26,South,185,2.0,2.0,63,0.00,,,0.00,Wunderground v.1.15,2013-01-23 12:50:00,
2013-01-23 08:00:00,11.2,1.0,30.26,NNW,346,2.0,5.0,63,0.00,,,0.00,Wunderground v.1.15,2013-01-23 13:00:00,
2013-01-23 08:10:00,11.4,0.9,30.26,NNW,328,2.0,2.0,62,0.00,,,0.00,Wunderground v.1.15,2013-01-23 13:10:00,
2013-01-23 08:20:00,11.7,1.2,30.26,WNW,292,4.0,4.0,62,0.00,,,0.00,Wunderground v.1.15,2013-01-23 13:20:00,
2013-01-23 08:30:00,12.1,1.6,30.26,WNW,296,2.0,5.0,62,0.00,,,0.00,Wunderground v.1.15,2013-01-23 13:30:00,
2013-01-23 08:40:00,12.7,1.8,30.26,NW,322,5.0,5.0,61,0.00,,,0.00,Wunderground v.1.15,2013-01-23 13:40:00,
2013-01-23 08:50:00,13.4,2.4,30.26,West,275,4.0,4.0,61,0.00,,,0.00,Wunderground v.1.15,2013-01-23 13:50:00,
2013-01-23 09:00:00,13.7,2.4,30.27,NNW,340,4.0,4.0,60,0.00,,,0.00,Wunderground v.1.15,2013-01-23 14:00:00,
2013-01-23 09:10:00,13.9,2.2,30.27,NW,304,2.0,2.0,59,0.00,,,0.00,Wunderground v.1.15,2013-01-23 14:10:00,
2013-01-23 09:20:00,14.2,2.8,30.27,NNW,331,2.0,2.0,60,0.00,,,0.00,Wunderground v.1.15,2013-01-23 14:20:00,
2013-01-23 09:30:00,15.1,3.7,30.27,North,5,2.0,2.0,60,0.00,,,0.00,Wunderground v.1.15,2013-01-23 14:30:00,
2013-01-23 09:40:00,15.9,3.3,30.27,NNW,331,3.0,11.0,57,0.00,,,0.00,Wunderground v.1.15,2013-01-23 14:40:00,
2013-01-23 09:50:00,16.6,3.6,30.27,North,360,3.0,6.0,56,0.00,,,0.00,Wunderground v.1.15,2013-01-23 14:50:00,
2013-01-23 10:00:00,17.0,3.2,30.27,NNW,345,4.0,4.0,54,0.00,,,0.00,Wunderground v.1.15,2013-01-23 15:00:00,
2013-01-23 10:10:00,17.6,2.9,30.27,ESE,103,3.0,3.0,52,0.00,,,0.00,Wunderground v.1.15,2013-01-23 15:10:00,
2013-01-23 10:20:00,18.3,3.2,30.27,NNW,327,3.0,3.0,51,0.00,,,0.00,Wunderground v.1.15,2013-01-23 15:20:00,
2013-01-23 10:30:00,18.6,2.6,30.28,WNW,291,5.0,5.0,49,0.00,,,0.00,Wunderground v.1.15,2013-01-23 15:30:00,
2013-01-23 10:40:00,19.5,3.0,30.28,NW,306,3.0,7.0,48,0.00,,,0.00,Wunderground v.1.15,2013-01-23 15:40:00,
2013-01-23 10:50:00,19.7,2.2,30.27,WNW,302,6.0,6.0,46,0.00,,,0.00,Wunderground v.1.15,2013-01-23 15:50:00,
2013-01-23 11:00:00,20.4,2.9,30.27,West,275,6.0,6.0,46,0.00,,,0.00,Wunderground v.1.15,2013-01-23 16:00:00,
2013-01-23 11:10:00,20.7,2.7,30.27,West,279,6.0,6.0,45,0.00,,,0.00,Wunderground v.1.15,2013-01-23 16:10:00,
2013-01-23 11:20:00,21.3,2.2,30.26,NW,319,5.0,5.0,43,0.00,,,0.00,Wunderground v.1.15,2013-01-23 16:20:00,
2013-01-23 11:30:00,22.3,2.1,30.25,WNW,293,3.0,4.0,41,0.00,,,0.00,Wunderground v.1.15,2013-01-23 16:30:00,
2013-01-23 11:40:00,23.3,3.6,30.24,WNW,285,4.0,4.0,42,0.00,,,0.00,Wunderground v.1.15,2013-01-23 16:40:00,
2013-01-23 11:50:00,23.8,2.4,30.24,NNW,331,4.0,8.0,39,0.00,,,0.00,Wunderground v.1.15,2013-01-23 16:50:00,
2013-01-23 12:00:00,24.2,2.8,30.23,SSW,197,6.0,7.0,39,0.00,,,0.00,Wunderground v.1.15,2013-01-23 17:00:00,
2013-01-23 12:10:00,23.6,1.7,30.22,WNW,286,5.0,6.0,38,0.00,,,0.00,Wunderground v.1.15,2013-01-23 17:10:00,
2013-01-23 12:20:00,23.5,2.1,30.22,SW,223,4.0,9.0,39,0.00,,,0.00,Wunderground v.1.15,2013-01-23 17:20:00,
2013-01-23 12:30:00,23.8,2.4,30.21,West,276,5.0,5.0,39,0.00,,,0.00,Wunderground v.1.15,2013-01-23 17:30:00,
2013-01-23 12:40:00,24.0,2.6,30.20,West,276,2.0,2.0,39,0.00,,,0.00,Wunderground v.1.15,2013-01-23 17:40:00,
2013-01-23 12:50:00,24.0,3.7,30.20,SW,230,4.0,4.0,41,0.00,,,0.00,Wunderground v.1.15,2013-01-23 17:50:00,
2013-01-23 13:00:00,24.0,4.2,30.19,NW,304,2.0,2.0,42,0.00,,,0.00,Wunderground v.1.15,2013-01-23 18:00:00,
2013-01-23 13:10:00,23.9,4.1,30.19,WNW,303,3.0,3.0,42,0.00,,,0.00,Wunderground v.1.15,2013-01-23 18:10:00,
2013-01-23 13:20:00,24.0,5.2,30.18,NW,317,2.0,2.0,44,0.00,,,0.00,Wunderground v.1.15,2013-01-23 18:20:00,
2013-01-23 13:30:00,24.1,5.8,30.18,WNW,293,3.0,3.0,45,0.00,,,0.00,Wunderground v.1.15,2013-01-23 18:30:00,
2013-01-23 13:40:00,24.4,7.0,30.18,WNW,301,2.0,2.0,47,0.00,,,0.00,Wunderground v.1.15,2013-01-23 18:40:00,
2013-01-23 13:50:00,24.3,7.9,30.17,SE,130,4.0,6.0,49,0.00,,,0.00,Wunderground v.1.15,2013-01-23 18:50:00,
2013-01-23 14:00:00,24.7,9.1,30.16,West,271,3.0,3.0,51,0.00,,,0.00,Wunderground v.1.15,2013-01-23 19:00:00,
2013-01-23 14:10:00,24.9,9.7,30.16,NNW,336,3.0,4.0,52,0.00,,,0.00,Wunderground v.1.15,2013-01-23 19:10:00,
2013-01-23 14:20:00,25.2,10.0,30.16,NW,309,1.0,1.0,52,0.00,,,0.00,Wunderground v.1.15,2013-01-23 19:20:00,
2013-01-23 14:30:00,25.4,10.6,30.15,SSE,159,2.0,2.0,53,0.00,,,0.00,Wunderground v.1.15,2013-01-23 19:30:00,
2013-01-23 14:40:00,25.9,11.5,30.15,North,5,1.0,1.0,54,0.00,,,0.00,Wunderground v.1.15,2013-01-23 19:40:00,
2013-01-23 14:50:00,25.7,11.7,30.15,West,267,2.0,2.0,55,0.00,,,0.00,Wunderground v.1.15,2013-01-23 19:50:00,
2013-01-23 15:00:00,25.4,12.3,30.15,WNW,288,2.0,2.0,57,0.00,,,0.00,Wunderground v.1.15,2013-01-23 20:00:00,
2013-01-23 15:10:00,25.0,12.3,30.15,NW,325,3.0,3.0,58,0.00,,,0.00,Wunderground v.1.15,2013-01-23 20:10:00,
2013-01-23 15:20:00,24.7,12.8,30.15,West,275,2.0,2.0,60,0.00,,,0.00,Wunderground v.1.15,2013-01-23 20:20:00,
2013-01-23 15:30:00,24.6,13.4,30.15,SW,234,3.0,3.0,62,0.00,,,0.00,Wunderground v.1.15,2013-01-23 20:30:00,
2013-01-23 15:40:00,24.5,13.7,30.15,West,276,1.0,1.0,63,0.00,,,0.00,Wunderground v.1.15,2013-01-23 20:40:00,
2013-01-23 15:50:00,24.4,13.6,30.15,NW,319,2.0,2.0,63,0.00,,,0.00,Wunderground v.1.15,2013-01-23 20:50:00,
2013-01-23 16:00:00,24.4,14.0,30.15,WNW,296,1.0,1.0,64,0.00,,,0.00,Wunderground v.1.15,2013-01-23 21:00:00,
2013-01-23 16:10:00,24.2,14.1,30.15,West,263,2.0,2.0,65,0.00,,,0.00,Wunderground v.1.15,2013-01-23 21:10:00,
2013-01-23 16:20:00,24.0,13.9,30.14,NW,304,2.0,4.0,65,0.00,,,0.00,Wunderground v.1.15,2013-01-23 21:20:00,
2013-01-23 16:30:00,23.9,14.2,30.14,SW,221,1.0,1.0,66,0.00,,,0.00,Wunderground v.1.15,2013-01-23 21:30:00,
2013-01-23 16:40:00,23.9,14.5,30.13,South,184,1.0,1.0,67,0.00,,,0.00,Wunderground v.1.15,2013-01-23 21:40:00,
2013-01-23 16:50:00,23.8,14.4,30.13,NNW,336,1.0,1.0,67,0.00,,,0.00,Wunderground v.1.15,2013-01-23 21:50:00,
2013-01-23 17:00:00,23.7,14.3,30.13,NNW,330,1.0,1.0,67,0.00,,,0.00,Wunderground v.1.15,2013-01-23 22:00:00,
2013-01-23 17:10:00,23.6,14.2,30.13,East,98,0.0,1.0,67,0.00,,,0.00,Wunderground v.1.15,2013-01-23 22:10:00,
2013-01-23 17:20:00,23.6,14.2,30.12,North,360,0.0,1.0,67,0.00,,,0.00,Wunderground v.1.15,2013-01-23 22:20:00,
2013-01-23 17:30:00,23.6,14.2,30.11,West,274,1.0,1.0,67,0.00,,,0.00,Wunderground v.1.15,2013-01-23 22:30:00,
2013-01-23 17:40:00,23.5,14.5,30.11,NW,317,1.0,2.0,68,0.00,,,0.00,Wunderground v.1.15,2013-01-23 22:40:00,
2013-01-23 17:50:00,23.5,14.5,30.11,NNW,338,2.0,2.0,68,0.00,,,0.00,Wunderground v.1.15,2013-01-23 22:50:00,
2013-01-23 18:00:00,23.6,14.6,30.11,NW,317,1.0,1.0,68,0.00,,,0.00,Wunderground v.1.15,2013-01-23 23:00:00,
2013-01-23 18:10:00,23.7,14.7,30.10,NNW,331,1.0,1.0,68,0.00,,,0.00,Wunderground v.1.15,2013-01-23 23:10:00,
2013-01-23 18:20:00,23.8,14.8,30.10,NNW,331,1.0,1.0,68,0.00,,,0.00,Wunderground v.1.15,2013-01-23 23:20:00,
2013-01-23 18:30:00,23.8,14.8,30.09,NNW,331,0.0,0.0,68,0.00,,,0.00,Wunderground v.1.15,2013-01-23 23:30:00,
2013-01-23 18:40:00,23.8,14.8,30.09,NNW,331,0.0,0.0,68,0.00,,,0.00,Wunderground v.1.15,2013-01-23 23:40:00,
2013-01-23 18:50:00,23.8,15.1,30.09,NNW,331,0.0,0.0,69,0.00,,,0.00,Wunderground v.1.15,2013-01-23 23:50:00,
2013-01-23 19:00:00,23.8,15.1,30.09,NNW,331,0.0,0.0,69,0.00,,,0.00,Wunderground v.1.15,2013-01-24 00:00:00,
2013-01-23 19:10:00,23.8,15.1,30.09,NNW,331,0.0,0.0,69,0.00,,,0.00,Wunderground v.1.15,2013-01-24 00:10:00,
2013-01-23 19:20:00,23.9,15.2,30.09,NNW,331,0.0,0.0,69,0.00,,,0.00,Wunderground v.1.15,2013-01-24 00:20:00,
2013-01-23 19:30:00,23.9,15.2,30.09,NNW,331,0.0,0.0,69,0.00,,,0.00,Wunderground v.1.15,2013-01-24 00:30:00,
2013-01-23 19:40:00,24.0,15.3,30.08,NNW,331,0.0,0.0,69,0.00,,,0.00,Wunderground v.1.15,2013-01-24 00:40:00,
2013-01-23 19:50:00,24.0,15.3,30.07,NNW,331,0.0,0.0,69,0.00,,,0.00,Wunderground v.1.15,2013-01-24 00:50:00,
2013-01-23 20:00:00,24.0,15.6,30.07,NNW,331,0.0,0.0,70,0.00,,,0.00,Wunderground v.1.15,2013-01-24 01:00:00,
2013-01-23 20:10:00,24.0,15.6,30.07,NNW,331,0.0,0.0,70,0.00,,,0.00,Wunderground v.1.15,2013-01-24 01:10:00,
2013-01-23 20:20:00,24.0,15.6,30.07,NNW,331,0.0,0.0,70,0.00,,,0.00,Wunderground v.1.15,2013-01-24 01:20:00,
2013-01-23 20:30:00,23.9,15.5,30.07,NNW,331,0.0,1.0,70,0.00,,,0.00,Wunderground v.1.15,2013-01-24 01:30:00,
2013-01-23 20:40:00,24.0,16.0,30.06,NNW,331,0.0,0.0,71,0.00,,,0.00,Wunderground v.1.15,2013-01-24 01:40:00,
2013-01-23 20:50:00,24.0,16.0,30.06,NNW,331,0.0,0.0,71,0.00,,,0.00,Wunderground v.1.15,2013-01-24 01:50:00,
2013-01-23 21:00:00,24.2,16.5,30.04,SSW,200,0.0,0.0,72,0.00,,,0.00,Wunderground v.1.15,2013-01-24 02:00:00,
2013-01-23 21:10:00,24.3,16.6,30.03,South,188,0.0,0.0,72,0.00,,,0.00,Wunderground v.1.15,2013-01-24 02:10:00,
2013-01-23 21:20:00,24.9,17.5,30.03,South,184,1.0,2.0,73,0.00,,,0.00,Wunderground v.1.15,2013-01-24 02:20:00,
2013-01-23 21:30:00,26.0,18.8,30.03,West,275,2.0,2.0,74,0.00,,,0.00,Wunderground v.1.15,2013-01-24 02:30:00,
2013-01-23 21:40:00,26.7,18.9,30.04,West,276,1.0,1.0,72,0.00,,,0.00,Wunderground v.1.15,2013-01-24 02:40:00,
2013-01-23 21:50:00,27.2,19.0,30.03,WSW,258,1.0,1.0,71,0.00,,,0.00,Wunderground v.1.15,2013-01-24 02:50:00,
2013-01-23 22:00:00,27.5,19.3,30.03,West,260,1.0,1.0,71,0.00,,,0.00,Wunderground v.1.15,2013-01-24 03:00:00,
2013-01-23 22:10:00,27.8,19.6,30.02,WNW,288,1.0,1.0,71,0.00,,,0.00,Wunderground v.1.15,2013-01-24 03:10:00,
2013-01-23 22:20:00,28.0,19.5,30.01,South,177,1.0,1.0,70,0.00,,,0.00,Wunderground v.1.15,2013-01-24 03:20:00,
2013-01-23 22:30:00,28.1,19.9,30.01,WNW,295,1.0,1.0,71,0.00,,,0.00,Wunderground v.1.15,2013-01-24 03:30:00,
2013-01-23 22:40:00,28.3,20.1,30.01,SW,234,0.0,0.0,71,0.00,,,0.00,Wunderground v.1.15,2013-01-24 03:40:00,
2013-01-23 22:50:00,28.4,19.9,30.00,SW,227,1.0,1.0,70,0.00,,,0.00,Wunderground v.1.15,2013-01-24 03:50:00,
2013-01-23 23:00:00,28.4,20.2,30.00,SW,214,0.0,0.0,71,0.00,,,0.00,Wunderground v.1.15,2013-01-24 04:00:00,
2013-01-23 23:10:00,28.4,19.9,29.99,SW,215,0.0,0.0,70,0.00,,,0.00,Wunderground v.1.15,2013-01-24 04:10:00,
2013-01-23 23:20:00,28.3,19.8,29.99,SW,215,0.0,0.0,70,0.00,,,0.00,Wunderground v.1.15,2013-01-24 04:20:00,
2013-01-23 23:30:00,28.2,20.0,29.99,SW,214,0.0,0.0,71,0.00,,,0.00,Wunderground v.1.15,2013-01-24 04:30:00,
2013-01-23 23:40:00,28.0,19.8,29.98,SW,215,0.0,0.0,71,0.00,,,0.00,Wunderground v.1.15,2013-01-24 04:40:00,
2013-01-23 23:50:00,27.8,19.9,29.97,SW,215,0.0,0.0,72,0.00,,,0.00,Wunderground v.1.15,2013-01-24 04:50:00,